Wind_Speed
10 10 11 12 12 11 11 11 11 10 9 8 8 9 9 8 8 9 10 10 8 7 7 6 3 4 5 2 2 4 5 7 7 7 9 10 9 9 10 10 8 6 4 3 1 2 3 3 3
7 9 10 9 10 11 10 10 9 9 8 6 7 9 9 9 8 9 9 11 12 10 8 8 7 6 6 6 4 3 3 4 5 6 6 7 7 7 6 6 5 4 4 4 3 2 2 3 2
8 9 9 9 10 11 11 11 10 9 8 7 7 7 8 10 10 10 9 9 11 13 11 11 10 9 8 8 7 6 5 6 6 6 6 6 6 6 6 6 5 4 3 2 2 3 3 4 5
8 9 9 10 11 11 11 13 13 12 12 10 9 9 9 8 10 9 9 9 9 11 13 13 13 13 12 11 11 9 8 8 7 6 6 7 7 7 7 7 7 6 5 5 5 5 5 7 7
10 9 9 9 10 11 13 14 13 13 13 15 13 12 10 10 9 8 8 8 7 8 10 12 14 15 15 15 14 13 12 11 10 9 10 10 9 8 9 8 9 9 9 8 8 8 8 9 9
11 12 12 13 12 11 11 13 13 13 14 12 14 14 14 13 12 11 8 7 7 7 7 7 10 13 16 17 17 17 16 16 15 15 14 13 13 12 12 12 12 12 12 11 10 10 10 10 10
17 17 17 17 17 15 13 14 14 15 16 17 14 16 14 14 14 14 13 12 10 9 8 8 8 9 11 15 18 19 19 20 19 19 19 18 18 17 17 16 16 15 15 15 15 15 15 14 14
21 21 21 21 21 21 18 18 16 16 18 17 18 17 18 16 14 15 15 15 15 15 14 13 11 10 10 11 13 16 19 20 22 22 22 22 23 22 20 20 20 20 19 20 21 21 21 21 19
25 24 22 25 24 22 23 22 20 19 20 18 23 23 20 19 19 17 17 18 17 17 15 16 16 16 14 13 14 16 18 19 21 23 25 25 25 25 25 24 23 23 23 24 25 25 24 25 24
27 25 24 28 27 26 25 25 24 23 24 23 25 25 23 21 22 23 22 22 22 22 20 21 19 19 18 18 18 19 20 20 21 22 24 25 26 28 28 28 27 27 27 27 28 27 28 27 28
27 26 28 28 31 31 27 27 27 28 24 27 26 28 28 25 24 27 29 27 27 27 25 26 26 23 22 22 22 21 23 24 25 25 24 25 27 28 30 31 32 32 32 31 31 31 31 31 32
30 28 29 28 32 32 31 28 29 30 27 30 29 31 31 30 28 30 31 32 33 31 31 32 31 28 27 27 26 25 26 26 26 26 27 28 28 28 30 31 33 33 33 33 33 33 34 33 33
33 30 29 28 30 32 34 29 35 26 27 32 34 30 29 29 27 28 29 33 35 36 35 36 35 34 32 30 31 30 29 30 30 28 28 29 30 30 30 31 31 31 32 32 33 34 35 35 35
37 34 31 30 29 33 36 31 41 25 34 31 33 32 31 27 26 25 26 28 31 35 37 39 39 38 36 35 34 33 33 34 33 32 31 31 31 31 32 32 31 31 31 32 32 32 32 32 33
41 41 35 28 31 38 42 42 33 32 35 33 32 34 32 31 29 27 28 28 30 33 37 39 40 38 37 36 36 36 37 37 35 35 34 31 30 33 34 34 34 33 32 32 33 31 31 31 32
45 47 40 29 34 40 47 48 32 36 40 39 36 35 35 34 33 32 32 33 34 36 36 37 36 36 37 37 38 38 38 37 36 36 35 34 33 33 35 35 34 33 32 31 31 32 34 34 35
44 51 50 43 30 41 47 48 37 35 39 42 41 39 41 39 38 36 39 41 40 39 38 37 36 36 38 37 37 38 37 36 35 37 36 36 36 35 36 37 35 35 34 34 35 36 38 39 40
48 50 50 48 34 41 51 51 46 43 42 35 34 34 37 39 38 39 42 43 44 43 40 39 40 39 40 39 37 36 35 35 37 38 38 39 39 38 36 37 37 37 35 36 36 38 39 41 41
50 51 51 48 44 51 50 52 48 40 38 32 32 35 34 30 29 31 37 40 42 45 42 39 38 38 40 39 38 38 37 36 39 42 40 41 41 41 39 38 39 38 37 35 37 39 41 42 41
51 52 53 51 51 53 53 52 50 44 36 36 30 25 31 34 32 33 38 39 40 41 43 41 40 41 41 42 42 39 38 39 40 41 40 40 40 39 38 41 40 38 36 36 38 38 39 39 40
47 49 49 55 53 53 55 52 51 42 36 30 34 36 33 34 36 31 34 40 42 43 44 43 43 44 44 45 44 43 42 42 40 38 40 42 43 43 44 42 40 39 39 40 39 38 38 39 39
52 44 49 50 54 56 52 53 49 44 40 36 37 38 35 32 32 31 32 35 39 40 41 42 42 43 45 47 46 46 46 46 44 44 45 44 44 43 42 41 42 42 43 40 41 40 41 41 40
53 54 50 51 54 57 59 59 53 53 53 52 45 44 46 47 51 44 37 42 44 44 46 44 44 44 44 47 49 50 50 49 49 50 50 50 49 47 46 46 45 44 43 42 43 43 41 42 44
52 54 58 56 56 60 59 58 55 56 59 60 57 60 61 60 61 63 60 47 47 49 46 46 48 47 46 43 45 48 51 50 51 52 53 53 50 47 46 45 45 46 44 44 45 47 49 48 48
52 52 58 63 64 62 60 64 56 61 59 62 62 65 66 66 64 64 65 61 54 53 54 54 52 50 47 49 48 47 48 50 52 51 49 51 52 49 46 48 47 47 48 49 49 50 52 51 49
58 59 63 63 64 65 62 69 63 59 60 61 65 66 68 67 65 62 62 60 60 59 57 60 59 57 51 48 49 49 48 48 49 43 42 45 46 46 48 48 49 51 51 51 51 53 52 52 51
66 66 59 62 62 65 67 69 69 62 60 60 64 64 62 61 64 71 63 60 44 43 39 41 45 49 54 53 48 50 54 44 42 46 47 49 51 48 47 49 53 53 53 52 54 56 56 56 55
72 69 69 68 68 72 75 73 72 62 60 63 63 61 60 58 60 63 64 59 61 56 46 47 49 48 51 52 53 51 48 46 46 49 53 54 55 56 58 60 60 57 55 54 54 55 55 57 58
75 75 74 70 66 72 76 75 67 65 59 63 62 63 65 59 54 53 53 55 61 56 51 51 50 47 54 58 62 63 62 58 55 56 59 63 65 66 68 66 64 60 55 53 52 54 57 59 60
72 71 69 70 76 73 72 70 62 64 64 64 67 68 67 68 62 62 63 58 58 62 57 57 48 53 59 61 62 68 67 57 63 66 65 67 68 67 67 67 64 60 59 59 58 58 58 60 62
Wind_Direction
341 345 351 356 350 347 341 348 355 358 354 338 333 334 332 321 304 289 285 290 297 307 316 312 300 313 328 317 164 119 111 117 117 123 139 138 131 120 122 127 125 128 130 125 178 202 217 213 260
348 354 1 4 1 0 1 5 6 359 347 338 352 3 359 351 328 305 289 274 278 284 289 299 295 287 279 290 303 240 200 177 154 149 145 141 148 148 148 140 140 155 154 147 171 248 268 285 313
354 0 0 0 7 12 12 15 16 4 357 353 2 10 8 3 354 343 317 291 274 273 279 281 284 285 286 275 266 265 257 235 220 207 182 176 178 167 160 157 163 162 162 202 209 240 254 277 285
356 0 356 350 354 1 3 2 3 7 355 354 359 353 351 350 355 353 349 331 299 281 272 270 270 275 278 280 278 267 254 261 259 254 238 233 224 219 214 199 197 200 215 231 249 258 271 274 274
339 340 340 338 338 343 348 349 348 351 345 342 344 346 353 335 329 347 349 344 337 310 290 277 270 266 267 272 275 274 271 267 267 268 266 264 255 248 246 245 247 247 250 256 254 261 266 269 269
327 325 329 326 332 333 334 333 333 337 338 341 333 334 341 341 332 321 327 332 327 319 310 297 283 271 267 264 266 270 273 270 268 264 264 260 257 255 257 258 257 261 266 268 271 273 274 277 278
311 315 318 319 321 321 323 321 324 328 325 322 324 322 327 332 336 330 321 315 311 308 304 297 288 281 275 266 264 266 267 267 266 266 265 262 259 256 253 252 253 254 258 262 268 274 278 280 275
304 304 307 308 307 306 306 305 305 311 304 304 303 304 309 312 311 313 314 312 306 302 297 296 289 280 273 271 268 266 266 265 262 261 260 261 257 255 258 262 262 262 262 262 264 267 271 272 272
299 301 299 297 297 295 297 294 292 297 290 285 284 294 297 299 299 295 292 293 295 296 296 294 287 282 281 278 275 272 269 267 268 266 262 260 260 257 253 254 258 260 261 262 262 265 267 269 271
293 299 292 295 292 293 294 292 289 291 286 272 277 285 293 290 289 284 278 278 282 283 284 282 283 282 280 279 275 275 273 271 268 266 265 264 263 261 259 260 263 263 263 263 263 263 264 266 264
295 298 290 293 292 293 292 289 290 287 285 276 275 277 279 273 267 271 274 274 274 277 277 274 275 274 276 276 276 275 274 271 267 267 267 268 264 262 260 260 262 262 261 261 262 261 262 263 263
296 295 289 292 291 296 292 290 285 284 284 278 275 278 281 280 278 271 267 271 275 276 271 268 269 270 269 269 272 274 272 271 270 267 266 265 265 263 263 262 262 263 262 262 263 263 263 263 264
295 291 293 291 292 292 290 292 283 293 284 275 280 279 275 279 283 278 274 270 271 271 269 271 270 268 267 266 267 269 270 270 270 271 271 267 265 265 266 266 265 267 267 267 266 264 264 265 265
296 294 293 295 293 288 284 277 282 299 281 284 282 282 278 276 283 288 281 276 272 270 270 269 269 268 266 266 266 266 267 267 267 269 272 271 266 264 262 263 264 264 265 265 265 265 265 265 266
289 290 292 300 290 283 280 279 294 292 282 281 275 276 277 277 283 290 286 282 278 274 269 267 267 269 272 271 269 267 264 264 266 268 271 273 269 265 262 261 261 262 265 267 269 271 272 271 270
288 288 291 282 281 287 286 288 288 284 284 280 276 274 276 280 281 282 282 282 275 272 273 272 273 272 272 271 267 262 262 263 266 267 271 274 269 267 263 260 260 261 263 267 268 271 272 273 272
289 287 282 282 287 286 283 284 286 276 277 281 283 286 284 282 279 280 275 272 272 270 272 273 272 271 271 270 268 266 265 264 264 265 269 271 269 266 262 260 261 259 259 262 265 268 269 269 269
279 279 283 287 289 277 278 281 282 285 285 292 293 288 285 282 281 273 272 270 270 272 272 273 272 272 271 268 266 265 263 265 264 265 267 267 268 266 264 261 260 258 260 261 263 265 266 266 267
279 280 283 286 286 280 277 282 285 284 288 293 292 290 291 284 284 282 275 272 271 269 270 273 273 272 269 267 265 263 264 265 266 267 268 268 267 265 263 260 256 257 259 261 263 263 265 266 268
279 281 281 282 282 279 284 284 284 289 292 296 291 288 292 289 283 278 274 272 270 268 269 269 267 269 266 263 262 265 267 270 272 270 269 266 268 265 259 254 253 257 260 264 264 265 268 273 274
278 278 281 279 280 280 284 284 284 286 289 286 290 292 290 291 287 282 275 275 273 271 270 269 265 264 264 263 263 262 265 268 269 267 264 266 265 262 257 257 257 258 261 265 266 267 268 270 274
275 278 277 280 280 281 277 277 279 287 287 283 282 284 285 280 280 286 282 278 281 280 277 277 270 267 266 262 260 259 260 265 267 264 263 265 266 268 266 260 259 261 265 267 268 271 272 274 276
279 277 278 278 277 275 274 280 284 288 289 287 285 289 292 291 290 282 274 277 282 281 280 277 273 267 261 262 265 265 263 262 265 264 264 263 263 263 261 262 261 263 265 269 273 274 276 277 279
276 275 274 273 273 271 278 283 273 278 281 286 289 297 298 294 292 291 292 283 277 278 279 277 276 274 267 262 260 263 265 264 261 260 261 264 266 267 266 264 264 265 270 272 275 277 276 276 275
275 274 271 273 275 277 278 277 267 276 284 287 294 295 294 291 287 287 289 289 290 287 283 280 276 275 269 263 260 258 259 263 265 267 265 265 265 262 257 258 260 264 268 271 273 275 277 278 278
276 278 275 278 280 277 273 270 265 277 279 285 290 290 288 287 289 288 287 289 290 288 285 281 274 271 267 268 269 263 258 259 261 264 268 265 259 260 259 261 264 266 268 272 276 276 277 277 278
277 274 280 279 277 274 271 273 273 276 282 283 282 283 289 288 283 279 279 282 282 278 269 260 258 266 265 264 260 260 259 254 256 260 261 263 260 259 263 267 268 269 270 269 272 274 275 277 278
278 281 279 279 280 279 280 275 276 276 276 276 277 279 275 272 272 275 276 276 276 272 257 249 244 243 245 246 242 243 244 250 258 261 258 256 255 257 263 265 269 270 272 271 271 272 274 276 277
280 277 278 280 277 278 282 282 281 278 275 276 275 268 268 271 272 271 269 272 270 268 257 246 242 252 246 243 243 243 244 248 257 264 263 261 264 263 265 267 269 270 271 269 269 272 275 277 277
279 280 280 280 284 283 281 281 287 283 279 272 271 272 270 265 266 266 265 272 273 271 255 246 239 252 252 241 241 247 249 251 255 260 263 261 263 266 267 267 269 269 271 271 272 271 271 274 275
Height
5871 5870 5868 5867 5869 5865 5864 5864 5862 5862 5861 5861 5860 5859 5858 5857 5857 5859 5856 5856 5856 5856 5856 5857 5857 5858 5858 5858 5857 5858 5858 5858 5857 5857 5858 5859 5859 5860 5861 5862 5864 5866 5867 5868 5870 5870 5871 5872 5873
5871 5869 5869 5868 5867 5865 5864 5863 5862 5861 5861 5861 5860 5859 5857 5857 5856 5855 5854 5854 5854 5855 5855 5855 5856 5856 5857 5857 5857 5858 5858 5858 5858 5858 5858 5858 5859 5860 5861 5861 5862 5864 5866 5867 5868 5869 5870 5870 5871
5871 5870 5869 5868 5867 5866 5865 5864 5862 5861 5861 5861 5860 5858 5857 5856 5855 5854 5853 5852 5852 5852 5853 5853 5853 5854 5854 5855 5856 5857 5857 5858 5857 5858 5858 5858 5859 5859 5860 5861 5862 5863 5863 5865 5866 5867 5868 5868 5869
5871 5871 5871 5869 5868 5867 5865 5864 5863 5862 5861 5860 5859 5858 5856 5855 5854 5853 5852 5851 5851 5850 5850 5851 5851 5852 5852 5852 5853 5854 5854 5856 5856 5857 5857 5858 5858 5858 5859 5860 5860 5861 5862 5863 5864 5865 5866 5867 5868
5870 5870 5870 5869 5868 5867 5866 5864 5863 5862 5862 5860 5858 5857 5856 5854 5852 5852 5851 5850 5850 5849 5848 5848 5849 5849 5849 5850 5850 5850 5851 5852 5852 5854 5854 5855 5856 5856 5858 5857 5858 5859 5860 5861 5862 5864 5864 5864 5865
5870 5870 5869 5869 5868 5867 5865 5864 5863 5862 5861 5860 5858 5857 5856 5854 5852 5851 5850 5849 5848 5848 5847 5846 5846 5847 5846 5847 5847 5847 5847 5848 5848 5850 5851 5853 5854 5854 5854 5855 5856 5856 5857 5858 5860 5860 5861 5861 5862
5868 5868 5867 5866 5866 5865 5864 5863 5862 5861 5860 5858 5858 5856 5855 5854 5852 5850 5849 5848 5847 5846 5845 5844 5844 5844 5844 5843 5844 5844 5845 5845 5845 5846 5847 5848 5850 5850 5852 5853 5853 5854 5854 5854 5855 5856 5857 5857 5859
5865 5865 5864 5863 5862 5861 5860 5860 5860 5860 5857 5856 5854 5854 5852 5851 5850 5849 5847 5846 5845 5845 5844 5843 5842 5841 5841 5841 5841 5841 5841 5841 5842 5842 5843 5843 5845 5846 5847 5848 5849 5849 5850 5850 5851 5852 5853 5854 5855
5860 5861 5860 5858 5857 5857 5856 5855 5855 5856 5853 5852 5850 5849 5849 5848 5847 5846 5844 5843 5842 5841 5842 5841 5840 5840 5839 5838 5837 5837 5837 5837 5837 5837 5838 5839 5840 5841 5842 5843 5844 5845 5845 5846 5847 5847 5849 5850 5850
5856 5857 5855 5852 5851 5852 5851 5850 5850 5851 5849 5846 5845 5845 5845 5845 5843 5841 5840 5838 5838 5837 5837 5836 5836 5836 5836 5835 5834 5834 5833 5833 5833 5833 5833 5834 5835 5836 5837 5838 5838 5839 5840 5840 5841 5842 5844 5844 5845
5853 5852 5848 5848 5845 5845 5846 5844 5844 5844 5845 5839 5841 5839 5838 5838 5837 5835 5834 5834 5832 5832 5832 5831 5830 5831 5831 5831 5831 5830 5829 5829 5828 5828 5828 5829 5829 5830 5831 5832 5832 5833 5834 5835 5836 5836 5837 5837 5838
5846 5846 5844 5844 5838 5837 5837 5838 5837 5836 5838 5832 5833 5832 5832 5830 5830 5829 5828 5827 5827 5826 5824 5823 5824 5824 5824 5825 5825 5824 5824 5824 5823 5822 5824 5824 5824 5824 5824 5824 5825 5826 5827 5828 5828 5829 5829 5830 5831
5839 5840 5838 5837 5834 5831 5828 5831 5826 5832 5830 5824 5824 5825 5824 5823 5823 5821 5821 5820 5819 5818 5817 5816 5816 5816 5817 5818 5818 5818 5818 5818 5818 5818 5818 5818 5818 5818 5818 5818 5818 5819 5819 5819 5820 5821 5822 5822 5822
5833 5833 5834 5833 5830 5825 5820 5823 5819 5828 5818 5819 5817 5817 5817 5817 5816 5815 5814 5813 5812 5810 5810 5808 5807 5807 5808 5809 5810 5810 5811 5810 5811 5812 5811 5811 5811 5811 5811 5811 5811 5811 5812 5813 5813 5813 5813 5813 5813
5824 5823 5826 5829 5825 5817 5812 5813 5818 5817 5812 5811 5811 5809 5809 5809 5809 5809 5808 5807 5804 5803 5800 5799 5798 5797 5799 5801 5802 5803 5802 5802 5803 5804 5804 5804 5804 5804 5804 5804 5803 5804 5804 5804 5804 5804 5804 5803 5803
5817 5813 5817 5824 5818 5812 5804 5800 5816 5810 5804 5803 5803 5803 5802 5802 5801 5801 5800 5798 5797 5795 5793 5791 5791 5791 5790 5791 5791 5792 5793 5794 5795 5795 5796 5796 5796 5796 5796 5795 5795 5796 5796 5796 5796 5795 5795 5795 5795
5810 5801 5802 5806 5815 5802 5794 5790 5802 5803 5799 5795 5798 5799 5796 5795 5795 5794 5790 5786 5786 5786 5786 5784 5783 5784 5783 5783 5783 5783 5784 5785 5786 5786 5788 5787 5787 5787 5788 5788 5789 5789 5789 5789 5788 5787 5787 5787 5787
5795 5791 5791 5793 5807 5797 5783 5780 5786 5790 5789 5792 5791 5790 5788 5785 5786 5784 5779 5776 5775 5775 5775 5776 5776 5776 5774 5774 5774 5775 5775 5777 5777 5777 5778 5777 5778 5779 5779 5779 5780 5780 5780 5780 5780 5779 5779 5778 5777
5786 5782 5781 5786 5788 5778 5777 5771 5775 5781 5780 5784 5783 5780 5780 5779 5777 5774 5771 5768 5764 5763 5765 5765 5766 5767 5766 5766 5766 5765 5767 5767 5767 5767 5768 5768 5768 5768 5769 5770 5770 5771 5771 5772 5772 5771 5770 5769 5768
5777 5775 5772 5771 5773 5768 5765 5760 5765 5772 5773 5770 5773 5771 5768 5768 5767 5765 5761 5758 5755 5754 5755 5756 5756 5756 5756 5756 5756 5756 5757 5758 5758 5757 5758 5758 5758 5758 5759 5759 5760 5762 5763 5763 5762 5762 5762 5762 5762
5769 5765 5764 5759 5760 5759 5754 5745 5751 5760 5765 5764 5762 5761 5760 5758 5755 5753 5752 5749 5748 5747 5745 5745 5745 5745 5745 5746 5747 5748 5748 5747 5747 5748 5747 5747 5746 5748 5748 5749 5751 5751 5752 5751 5752 5752 5752 5751 5752
5754 5758 5753 5752 5749 5744 5745 5731 5739 5749 5753 5754 5754 5750 5747 5748 5746 5746 5745 5743 5740 5739 5738 5738 5736 5735 5735 5735 5736 5737 5737 5736 5737 5735 5734 5735 5736 5738 5740 5740 5740 5741 5741 5741 5741 5742 5742 5742 5741
5748 5744 5743 5742 5739 5736 5730 5731 5735 5735 5733 5732 5737 5741 5741 5737 5735 5734 5734 5735 5733 5729 5729 5727 5726 5725 5724 5724 5725 5726 5727 5726 5725 5723 5723 5723 5724 5725 5727 5728 5729 5730 5729 5730 5730 5730 5730 5730 5730
5732 5730 5727 5725 5725 5724 5728 5727 5721 5727 5723 5720 5722 5721 5718 5718 5716 5714 5714 5719 5719 5719 5718 5717 5716 5716 5713 5712 5711 5712 5713 5714 5713 5711 5711 5711 5711 5712 5714 5716 5717 5717 5718 5718 5717 5716 5716 5716 5716
5718 5716 5710 5707 5707 5713 5713 5709 5718 5715 5720 5716 5714 5711 5705 5699 5696 5697 5697 5699 5698 5700 5703 5703 5702 5703 5703 5700 5697 5697 5698 5698 5699 5700 5700 5700 5700 5700 5700 5701 5703 5703 5704 5704 5703 5703 5702 5702 5703
5703 5702 5698 5688 5692 5694 5692 5689 5707 5708 5707 5707 5702 5694 5691 5685 5679 5681 5680 5676 5677 5680 5682 5685 5688 5689 5690 5690 5689 5687 5684 5684 5685 5685 5686 5687 5688 5688 5688 5688 5689 5689 5689 5690 5690 5689 5688 5689 5689
5689 5682 5685 5672 5671 5667 5677 5677 5684 5700 5698 5695 5686 5681 5673 5671 5668 5665 5664 5665 5662 5664 5666 5669 5671 5672 5674 5672 5672 5673 5673 5670 5670 5671 5671 5671 5672 5674 5674 5676 5676 5675 5675 5675 5675 5674 5674 5673 5674
5667 5669 5663 5661 5650 5643 5644 5658 5662 5683 5688 5680 5671 5662 5657 5653 5650 5652 5651 5652 5649 5647 5647 5646 5646 5649 5651 5652 5652 5652 5652 5654 5656 5657 5657 5658 5657 5657 5657 5658 5659 5659 5659 5660 5660 5660 5659 5659 5658
5653 5645 5643 5637 5635 5626 5623 5627 5652 5657 5664 5654 5643 5635 5638 5642 5641 5638 5637 5636 5633 5634 5636 5634 5635 5638 5636 5634 5634 5634 5634 5636 5637 5640 5640 5640 5639 5639 5639 5639 5640 5641 5642 5642 5643 5645 5644 5643 5643
5632 5628 5628 5618 5615 5612 5602 5599 5629 5632 5638 5624 5619 5618 5619 5619 5621 5620 5621 5619 5618 5621 5621 5621 5618 5619 5620 5618 5619 5620 5622 5621 5622 5621 5621 5621 5622 5620 5619 5620 5622 5623 5623 5623 5624 5624 5627 5627 5626